Location: Innsbruck
(47.2657°N, 11.3914°E)
Time: 16:40:09
(UTC+01:00)

BEESAT 2 - Visible Passes

Search period start: 28 November 2021 00:00
Search period end: 08 December 2021 00:00
Orbit: 497 x 517 km, 64.9° (Epoch: 27 November)

Date Brightness Start Highest point End Pass type
(mag) Time Alt. Az. Time Alt. Az. Time Alt. Az.
29 Nov ? 06:47:38 10° NNW 06:50:52 24° NE 06:54:05 10° E visible
30 Nov ? 06:29:07 10° NNW 06:32:19 23° NE 06:35:29 10° E visible
01 Dec ? 06:10:36 10° NNW 06:13:46 23° NE 06:16:54 10° E visible
02 Dec ? 05:52:41 13° N 05:55:12 22° NE 05:58:19 10° E visible
03 Dec ? 05:34:52 16° N 05:36:39 22° NE 05:39:42 10° E visible
04 Dec ? 05:17:06 19° NNE 05:18:04 21° NE 05:21:05 10° E visible
04 Dec ? 06:52:00 10° NW 06:55:51 58° WSW 06:59:38 10° SSE visible
05 Dec ? 04:59:23 20° NE 04:59:29 20° NE 05:02:28 10° E visible
05 Dec ? 06:34:12 15° NW 06:37:17 61° WSW 06:41:06 10° SSE visible
06 Dec ? 04:41:43 19° NE 04:41:43 19° NE 04:43:50 10° E visible
06 Dec ? 06:16:32 24° NW 06:18:43 63° WSW 06:22:32 10° SSE visible
07 Dec ? 04:24:06 15° ENE 04:24:06 15° ENE 04:25:11 10° E visible
07 Dec ? 05:58:56 40° WNW 06:00:09 66° SW 06:03:59 10° SSE visible
